Location: Caltech
(34.1382°N, 118.1253°W)
Time: 16:41:57
(UTC-07:00)

Meteor 2-4 Rocket - Visible Passes

Search period start: 02 September 2014 00:00
Search period end: 12 September 2014 00:00
Orbit: 800 x 909 km, 81.2° (Epoch: 02 September)

Date Brightness Start Highest point End Pass type
(mag) Time Alt. Az. Time Alt. Az. Time Alt. Az.
02 Sep 6.6 19:54:14 10° NW 19:58:13 20° W 20:02:08 10° SW visible
03 Sep 6.6 19:43:12 10° NW 19:47:22 21° W 19:51:26 10° SW visible
04 Sep 6.5 19:32:11 10° NW 19:36:30 23° W 19:40:42 10° SW visible
10 Sep 5.3 05:59:07 10° SSE 06:04:40 44° E 06:10:15 10° NNE visible
11 Sep 5.4 05:48:19 10° SSE 05:53:48 41° E 05:59:18 10° NNE visible
